Location: Saint Louis
(38.6272°N, 90.1978°W)
Time: 08:09:42
(UTC-05:00)

ISS - Pass Details

Date: 18 November 2013
Orbit: 402 x 406 km, 51.6° (Epoch: 25 August)

Event Time Altitude Azimuth Distance (km) Brightness Sun altitude
Exits shadow 03:37:58 - 49° (NE) 2,345 1.2 -36.7°
Enters shadow 04:35:39 -65° 270° (W) 12,122 4.1 -25.4°
Maximum altitude 05:12:17 14° 18° (NNE) 1,264 -0.8 -18.3°
